Regional Weather Roundup
Issued by NWS Memphis, TN

Home | Current Version | Previous Version | Text Only | Print | Product List | Glossary On
Versions: 1 2 3 4 5 6 7 8 9 10 11 12 13 14 15 16 17 18 19 20 21 22 23 24 25 26 27 28 29 30 31 32 33 34 35 36 37 38 39 40 41 42 43 44 45 46 47 48 49 50
000
ASUS44 KMEG 261310
RWRMEG
MEMPHIS CWA HOURLY WEATHER ROUNDUP
NATIONAL WEATHER SERVICE MEMPHIS TN
700 AM CST MON JAN 26 2015

...WEST TENNESSEE...

CITY           SKY/WX    TMP DP  RH WIND       PRES   REMARKS
MEMPHIS INTL   CLOUDY    38  29  70 N12G18    30.09R WCI  30
NWS MEMPHIS      N/A     37 N/A N/A MISG        N/A
JACKSON        CLOUDY    34  26  72 N10       30.06R WCI  26
LEXINGTON      CLOUDY    34  28  80 NW12      30.01R WCI  25
SAVANNAH       CLOUDY    34  30  86 NW7       30.03R WCI  28
DYERSBURG      PTCLDY    32  18  55 CALM      30.09R
UNION CITY     CLEAR     28  27  93 N8        30.04R WCI  20
PARIS          CLOUDY    28  25  86 VRB6      30.02R WCI  22


...EASTERN ARKANSAS...

CITY           SKY/WX    TMP DP  RH WIND       PRES   REMARKS
JONESBORO      CLOUDY    36  30  79 N6        30.09R WCI  31
WEST MEMPHIS   CLOUDY    38  32  79 N6        30.09R WCI  33
BATESVILLE     CLEAR     34  27  75 CALM      30.11R
NEWPORT        CLEAR     31  29  92 NW6       30.12R WCI  25
WALNUT RIDGE   CLOUDY    34  27  75 W6        30.10R WCI  29
BLYTHEVILLE    CLEAR     30  28  92 NW5       30.08R WCI  25
SEARCY         CLEAR     32  29  88 CALM      30.15R
STUTTGART      CLEAR     36  28  75 N6        30.14R WCI  31
PINE BLUFF     PTCLDY    34  29  82 CALM      30.15R
MONTICELLO     PTCLDY    40  32  73 CALM      30.13R


...NORTH MISSISSIPPI...

CITY           SKY/WX    TMP DP  RH WIND       PRES   REMARKS
TUPELO         CLOUDY    39  30  70 N21       30.04R WCI  29
OXFORD         CLOUDY    37  28  70 NW12G22   30.09R WCI  30
OLIVE BRANCH   CLOUDY    36  34  93 N9G20     30.08R WCI  29
TUNICA         CLOUDY    37  32  81 N13       30.12R WCI  29
CLARKSDALE     CLOUDY    39  34  81 N8        30.13R WCI  34
CORINTH        CLOUDY    37  30  75 N8G17     30.03R WCI  31
GRENADA        CLOUDY    37  32  81 NW6       30.11R WCI  33
GREENWOOD      CLOUDY    41  32  70 N8        30.11R
COLUMBUS       CLOUDY    41  33  71 NW16G24   30.03R
STARKVILLE     CLOUDY    41  34  75 NW6       30.05R
GOLDEN TRIANGL CLOUDY    43  34  70 NW14      30.02R


...SOUTHEAST MISSOURI...

CITY           SKY/WX    TMP DP  RH WIND       PRES   REMARKS
WEST PLAINS    CLOUDY    32  27  81 W7        30.06R WCI  26
POPLAR BLUFF   CLEAR     32  25  75 NW5       30.06R WCI  27
CAPE GIRARDEAU PTCLDY    29  25  85 NW5       30.05S WCI  24


...NORTHWEST ALABAMA...

CITY           SKY/WX    TMP DP  RH WIND       PRES   REMARKS
MUSCLE SHOALS  CLOUDY    38  32  79 NW13G20   30.00R WCI  30


...MIDDLE TENNESSEE...

CITY           SKY/WX    TMP DP  RH WIND       PRES   REMARKS
NASHVILLE      CLOUDY    33  29  85 NW13G21   29.96R WCI  24
CLARKSVILLE    CLOUDY    33  29  85 NW14      29.98R WCI  23
COLUMBIA       CLOUDY    34  34 100 NW6       29.95R WCI  29


...WESTERN KENTUCKY...

CITY           SKY/WX    TMP DP  RH WIND       PRES   REMARKS
PADUCAH        CLEAR     29  23  78 NW5       30.02R WCI  24
FORT CAMPBELL  CLOUDY    32  29  86 NW14G20   29.99R WCI  22


...CENTRAL ARKANSAS...

CITY           SKY/WX    TMP DP  RH WIND       PRES   REMARKS
LITTLE ROCK    PTCLDY    37  29  72 W5        30.15R WCI  33


SKY/WX REPORTED AS FAIR MEANS FEW OR NO CLOUDS BELOW
12 THOUSAND FEET.




USA.gov is the U.S. government's official web portal to all federal, state and local government web resources and services.